Voltar ao catálogo

AYAME 1 DEB

AtivoHEO
NORAD 38682·DEBRIS·🇯🇵 Japan

Lançado Feb 6, 1979 de Tanegashima Space Center

Loading…

Próximas Passagens (próximas 24 horas)

TLE

AtualizadoSource: Space-Track

Época: Sep 13, 2026, 06:17 UTC

1 38682U 79009E   26256.26240760 -.00000101  00000-0  00000-0 0  9993
2 38682   9.7555 298.0372 3725565 151.5339 235.0087  1.68585679 87196

Acompanhe AYAME 1 DEB em tempo real com AllMySat

Download on the App Store